星链-36606(STARLINK-36606)

导读

STARLINK-36606是美国星链计划中的卫星,于2026年2月16日发射升空,隶属于SpaceX公司的星链卫星互联网星座项目。星链项目旨在构建全球卫星互联网,为全球偏远地区、海洋上空等提供高速网络接入服务,该卫星将进一步扩充星链星座的在轨规模,提升网络服务覆盖范围与稳定性。

基本信息
目录编号:
67845
目录名称:
STARLINK-36606
国际标识:
2026-033AA
轨道中心:
EARTH
卫星名称:
星链-36606
卫星全名:
星链-36606(STARLINK-36606)
卫星状态:
在轨 (已飞行200 天)
发射日期:
2026-02-16 UTC
国别 :
美国 (US)
星等 :
--
轨道信息
数据来源 国际轨道数据 AOE轨道数据
星历时间 2026-09-03T23:36:39+0800
20小时前
查看轨道信息
2026-09-01T02:00:00+0800
3天前
查看轨道信息
半长轴 6861.146km 6861.192km
偏心率 0.0001919 0.0002056
轨道倾角 43.005° 43.003°
近地点辐角 274.219° 272.495°
升交点赤经 341.770° 358.153°
平近点角 85.844° 318.448°
近地点 481.692km 481.644km
远地点 484.326km 484.466km
周期 94.266分钟 94.267分钟
每日圈数 15.275936 15.275781
详细信息
固有亮度:
5
最大亮度:
2.5
卫星平台:
Starlink V1.0
覆盖范围:
全球
运营商:
太空探索技术公司
运营商所在国:
美国
制造商(研发单位):
太空探索技术公司
制造商所在国:
美国
使用方式:
暂无
卫星简介
Starlink 计划是 SpaceX 推出的全球卫星互联网项目,通过发射低轨道卫星,为全球尤其是偏远地区提供高速、低延迟的互联网服务。自 2019 年起,Starlink 已部署数千颗卫星,旨在缩小全球数字鸿沟,推动互联网普及。该项目还为军事、航空等行业提供通信支持,带来广泛经济效益。
2D轨道图
3D轨道图
轨道高度分析图
轨道倾角分析图
轨道综合分析图
查看轨道综合分析图
交会数据列表
事件ID 空间交会对象 最接近时刻(TCA) 交会距离 交会风险概率(CRP) 交会风险指数(CRI) 操作
CDM_260906-085705-861106-784521
2026-09-06T
08:57:04+0000
0.236 km
中距离
5.371597E-4 高风险 0.9
CDM_260906-112305-630006-784521
2026-09-06T
11:23:01+0000
0.337 km
远距离
2.573839E-4 高风险 0.83
CDM_260906-024505-630006-784521
2026-09-06T
02:45:11+0000
0.405 km
远距离
1.772968E-4 高风险 0.8
CDM_260906-071506-433906-784521
2026-09-06T
07:15:54+0000
0.911 km
远距离
2.817082E-5 中风险 0.64
CDM_260906-161805-548806-784521
2026-09-06T
16:18:38+0000
0.934 km
远距离
1.856228E-5 中风险 0.6
CDM_260906-085006-433906-784521
2026-09-06T
08:50:03+0000
1.314 km
极远距离
7.948383E-6 低风险 0.53
CDM_260906-033005-628706-784521
2026-09-06T
03:30:16+0000
1.226 km
极远距离
7.426594E-6 低风险 0.52
CDM_260906-144405-548806-784521
2026-09-06T
14:44:29+0000
1.230 km
极远距离
7.190382E-6 低风险 0.52
CDM_260906-103105-861106-784521
2026-09-06T
10:31:13+0000
1.405 km
极远距离
5.396936E-6 低风险 0.5
CDM_260906-011105-630006-784521
2026-09-06T
01:11:01+0000
1.360 km
极远距离
4.460775E-6 低风险 0.48